Simultaneous Nadir Overpasses (SNOs) Predictions

Prediction of SNOs between METOP-B and NOAA-19 Satellite Orbit:

Table of predicted SNOs for the next 14.0 days since TLE Epoch: 5/29/2021
Index Date (METOP-B) Time (METOP-B) Lat,Lon (METOP-B) SZA (METOP-B ) Date (NOAA-19) Time (NOAA-19) Lat,Lon (NOAA-19) SZA (NOAA-19 ) Distance(km) Time Diff (sec)
1 05/31/2021 03:25:44 80.53, 157.17 59.84 05/31/2021 03:24:49 80.51, 157.15 59.80 1.60 55
2 05/31/2021 04:16:26 -80.51, -35.72 120.21 05/31/2021 04:15:44 -80.52, -35.73 120.21 1.01 42
3 05/31/2021 05:07:06 80.52, 131.71 59.81 05/31/2021 05:06:49 80.51, 131.77 59.80 1.57 17
4 05/31/2021 05:57:48 -80.50, -61.19 120.24 05/31/2021 05:57:44 -80.51, -61.10 120.22 2.04 4
5 05/31/2021 06:48:28 80.51, 106.24 59.78 05/31/2021 06:48:49 80.50, 106.39 59.79 2.79 21
6 05/31/2021 07:39:09 -80.51, -86.32 120.21 05/31/2021 07:39:44 -80.51, -86.48 120.22 3.12 35
7 05/31/2021 08:29:49 80.50, 80.78 59.75 05/31/2021 08:30:49 80.51, 80.67 59.77 2.51 60
8 05/31/2021 09:20:30 -80.51,-111.78 120.24 05/31/2021 09:21:43 -80.50,-111.86 120.23 1.52 73
9 06/11/2021 06:20:34 80.52, 113.40 58.62 06/11/2021 06:19:38 80.54, 113.29 58.61 2.86 56
10 06/11/2021 07:11:16 -80.51, -79.36 121.40 06/11/2021 07:10:33 -80.53, -79.30 121.39 2.33 43
11 06/11/2021 08:01:55 80.53, 88.27 58.65 06/11/2021 08:01:37 80.52, 88.26 58.63 1.88 18
12 06/11/2021 08:52:37 -80.53,-104.50 121.37 06/11/2021 08:52:33 -80.53,-104.68 121.39 3.40 4
13 06/11/2021 09:43:17 80.52, 62.80 58.62 06/11/2021 09:43:37 80.51, 62.87 58.63 1.99 20
14 06/11/2021 10:33:59 -80.52,-129.96 121.40 06/11/2021 10:34:33 -80.52,-130.06 121.39 1.86 34
15 06/11/2021 11:24:39 80.52, 37.33 58.60 06/11/2021 11:25:37 80.51, 37.49 58.63 3.07 58



Historial Predications of SNOs between METOP-B and NOAA-19
